Temp
13 13 13 14 15 15 16 16 17 17 17 18 18 18 19 19 19 19 19 19 18 18 18 18 17 17 17 17 16 16 15 15 15 14 14 13 13 12 12 12 11 12 10 10
14 14 15 16 16 16 16 16 16 17 17 17 17 17 18 18 18 18 18 18 18 18 18 18 17 18 18 17 17 16 15 15 15 15 14 13 13 13 12 12 12 12 11 10
15 16 16 17 17 16 16 17 17 17 17 17 17 17 17 18 18 18 18 18 18 18 18 18 17 18 18 18 18 17 16 15 15 15 14 13 13 13 13 12 12 12 11 11
15 16 16 16 16 16 16 17 17 17 16 17 17 18 17 18 18 18 18 18 18 18 18 18 17 18 18 18 18 17 16 15 15 14 14 14 13 13 12 12 12 12 11 11
16 16 16 16 16 16 16 16 16 16 16 16 16 17 17 17 17 16 16 17 18 18 18 18 17 18 18 18 18 18 16 16 15 15 15 14 14 13 12 12 12 11 11 10
15 15 15 16 15 15 15 15 15 16 16 17 17 15 16 15 15 14 15 16 17 18 19 19 18 18 18 17 18 18 17 16 16 15 14 14 14 13 13 12 11 11 10 10
16 17 17 16 15 15 15 16 16 17 18 18 17 16 16 15 14 14 15 15 16 18 18 19 18 18 18 16 17 18 17 17 16 15 14 14 13 13 13 12 11 11 10 10
16 17 16 16 15 15 15 16 16 15 17 17 17 16 16 15 14 15 15 14 15 16 17 19 18 17 17 17 17 18 17 17 17 15 14 14 13 12 12 12 11 10 10 11
13 15 15 15 15 15 16 16 16 16 16 17 16 15 15 15 15 14 15 14 14 16 16 16 15 16 17 16 17 17 18 18 17 16 14 14 13 13 13 12 11 11 12 12
13 13 14 14 15 15 15 15 16 16 16 16 17 14 16 14 14 14 13 14 14 13 15 14 15 14 15 16 16 16 17 17 17 16 15 14 14 13 12 11 11 11 12 12
12 13 13 14 14 15 15 15 15 14 13 14 15 15 11 13 11 11 11 12 13 12 12 11 15 15 15 15 15 16 16 17 17 16 15 14 14 13 12 12 12 12 12 12
11 11 12 12 13 14 14 13 12 13 12 12 11 13 12 14 11 10 10 10 7 7 9 11 16 16 16 15 15 15 15 17 17 16 16 14 13 13 12 12 12 12 12 12
10 10 10 12 14 13 12 13 12 12 11 12 10 13 12 12 12 10 11 9 8 9 10 14 16 17 16 15 13 14 14 14 15 16 14 13 13 13 12 12 12 12 13 12
9 9 10 11 12 12 12 13 13 12 13 13 12 12 12 12 12 10 10 10 10 10 11 13 14 14 12 12 12 12 11 10 11 10 13 13 13 13 12 12 11 12 13 13
9 10 10 10 11 11 11 12 13 14 13 13 13 12 11 11 11 8 9 8 8 9 11 12 12 13 10 10 11 11 10 11 10 10 11 12 11 11 12 12 12 11 12 13
9 9 9 9 10 10 11 12 13 13 13 14 12 9 7 8 9 8 10 6 8 10 10 11 11 11 10 9 10 10 10 10 11 10 10 10 11 10 10 11 11 11 12 12
8 9 9 9 10 10 11 12 12 12 11 10 10 7 7 6 8 7 7 7 8 9 11 11 11 11 10 7 6 9 9 9 9 10 9 10 10 10 7 10 10 9 10 11
9 9 9 9 9 10 11 11 11 10 9 6 6 8 10 8 8 7 7 7 7 7 8 9 9 10 9 9 9 10 10 10 11 12 10 11 7 7 6 7 10 10 9 10
10 9 9 9 10 11 12 9 8 8 8 6 5 7 6 6 6 6 6 6 7 7 8 8 8 9 9 8 9 9 11 9 11 11 10 9 9 8 8 7 9 10 9 9
9 8 5 7 6 10 7 6 6 6 8 6 7 7 7 6 7 6 7 6 6 8 8 8 9 9 9 9 9 9 9 9 9 8 7 8 8 9 8 8 9 9 8 9
7 7 5 6 5 7 6 6 7 7 7 6 7 6 5 6 6 5 5 6 6 7 7 8 9 9 9 9 8 8 8 8 8 8 7 7 7 7 7 8 9 9 9 9
7 5 6 6 6 6 4 6 4 5 5 5 6 5 6 6 6 5 5 5 6 6 6 7 7 7 7 7 7 7 7 7 7 7 6 6 7 8 8 8 7 8 8 8
6 5 4 5 5 5 5 4 4 5 4 4 6 6 7 6 5 4 5 5 5 5 5 5 6 5 5 6 6 6 5 5 5 5 6 6 5 5 6 6 6 6 7 8
5 5 5 4 5 4 4 4 4 5 4 5 5 6 6 5 5 5 5 5 4 4 5 4 5 5 5 6 5 5 5 4 5 5 4 4 4 4 4 4 4 4 5 5
6 5 5 4 5 4 4 4 4 3 3 5 5 5 5 5 4 4 4 4 4 4 4 4 5 5 5 5 5 5 5 5 5 5 5 5 6 5 6 6 6 5 4 4
5 5 5 5 4 4 4 4 3 4 4 3 4 4 4 4 4 3 4 4 4 4 4 4 3 3 4 4 4 4 5 5 5 4 5 5 5 5 5 4 4 4 4 5
Height
3147 3147 3145 3145 3144 3143 3141 3138 3135 3134 3134 3132 3128 3125 3127 3128 3130 3131 3132 3134 3135 3139 3142 3137 3137 3138 3140 3143 3146 3150 3153 3155 3156 3158 3160 3161 3162 3163 3164 3164 3165 3166 3167 3169
3146 3142 3142 3141 3140 3139 3137 3134 3130 3128 3128 3128 3125 3122 3122 3123 3124 3125 3126 3127 3129 3131 3135 3136 3131 3134 3135 3137 3141 3145 3148 3151 3153 3154 3157 3159 3160 3161 3162 3163 3163 3163 3165 3167
3141 3139 3138 3137 3136 3135 3132 3130 3127 3124 3123 3121 3121 3113 3115 3116 3117 3118 3119 3120 3121 3124 3126 3129 3123 3127 3129 3133 3135 3140 3144 3147 3150 3151 3153 3155 3157 3158 3159 3160 3161 3162 3163 3163
3137 3135 3134 3134 3133 3132 3127 3126 3124 3121 3119 3114 3117 3104 3106 3108 3109 3110 3110 3111 3111 3115 3117 3119 3117 3121 3124 3128 3131 3135 3139 3143 3144 3146 3149 3151 3153 3155 3156 3157 3158 3159 3159 3160
3134 3132 3132 3131 3129 3128 3125 3123 3121 3119 3115 3112 3108 3105 3100 3101 3100 3098 3092 3097 3104 3107 3109 3112 3109 3116 3118 3122 3126 3129 3134 3137 3139 3142 3144 3147 3150 3151 3152 3154 3156 3155 3156 3157
3130 3129 3127 3126 3126 3125 3123 3120 3118 3113 3108 3103 3096 3098 3099 3099 3097 3096 3098 3094 3097 3102 3102 3104 3103 3110 3112 3116 3119 3124 3128 3131 3134 3137 3139 3143 3146 3148 3149 3152 3152 3152 3153 3154
3126 3123 3122 3124 3123 3122 3120 3117 3110 3106 3099 3092 3093 3094 3093 3092 3093 3095 3094 3092 3092 3095 3096 3094 3095 3101 3106 3110 3114 3118 3122 3125 3128 3132 3134 3139 3142 3145 3147 3148 3149 3149 3150 3149
3125 3122 3122 3122 3121 3120 3118 3116 3112 3107 3099 3093 3092 3095 3092 3091 3088 3088 3090 3092 3098 3088 3090 3089 3090 3094 3100 3105 3106 3111 3117 3120 3123 3126 3129 3134 3138 3141 3143 3144 3145 3146 3146 3147
3128 3124 3120 3120 3118 3116 3113 3111 3108 3103 3100 3091 3089 3091 3089 3088 3088 3091 3086 3086 3088 3081 3089 3084 3077 3089 3093 3098 3104 3108 3110 3113 3117 3120 3124 3127 3132 3135 3137 3139 3141 3143 3143 3143
3128 3123 3121 3117 3115 3112 3110 3109 3106 3101 3096 3091 3085 3088 3082 3085 3090 3093 3090 3084 3080 3073 3078 3085 3092 3073 3087 3089 3096 3101 3105 3108 3111 3114 3117 3121 3125 3129 3132 3134 3137 3139 3140 3140
3126 3123 3118 3115 3111 3108 3108 3104 3103 3102 3104 3098 3089 3087 3084 3081 3088 3086 3087 3081 3075 3071 3062 3071 3082 3085 3090 3090 3089 3093 3097 3102 3105 3107 3109 3114 3119 3123 3126 3129 3132 3134 3136 3136
3124 3120 3116 3113 3109 3108 3106 3104 3104 3104 3103 3099 3105 3090 3082 3080 3082 3093 3086 3084 3085 3085 3075 3061 3072 3079 3083 3087 3086 3085 3089 3092 3097 3100 3100 3106 3113 3118 3122 3124 3128 3130 3132 3133
3121 3120 3115 3109 3105 3105 3106 3103 3103 3101 3100 3097 3105 3087 3082 3080 3081 3090 3090 3088 3089 3086 3079 3070 3065 3071 3078 3083 3081 3083 3081 3082 3088 3092 3095 3103 3108 3113 3116 3117 3119 3122 3126 3128
3119 3118 3116 3112 3108 3104 3104 3101 3099 3099 3096 3092 3091 3085 3078 3075 3074 3083 3083 3082 3079 3080 3075 3073 3070 3068 3073 3078 3077 3075 3074 3076 3077 3083 3091 3096 3101 3107 3110 3111 3112 3114 3116 3119
3116 3112 3111 3108 3106 3103 3100 3097 3093 3091 3088 3087 3082 3078 3075 3074 3067 3068 3074 3076 3072 3069 3076 3072 3070 3067 3064 3072 3074 3068 3067 3068 3078 3079 3084 3091 3098 3102 3099 3098 3103 3110 3112 3112
3112 3108 3107 3103 3102 3099 3094 3091 3088 3086 3083 3079 3080 3074 3079 3076 3071 3070 3064 3067 3068 3067 3073 3068 3066 3062 3064 3063 3063 3063 3067 3069 3071 3073 3074 3073 3074 3078 3051 3068 3100 3099 3109 3110
3107 3105 3104 3098 3098 3093 3089 3086 3082 3079 3080 3077 3080 3078 3069 3078 3078 3075 3071 3069 3065 3060 3059 3060 3061 3056 3062 3059 3059 3058 3064 3070 3070 3067 3050 3060 3062 3062 3033 3026 3087 3089 3105 3106
3100 3100 3100 3096 3095 3087 3083 3080 3076 3073 3073 3076 3080 3077 3073 3075 3073 3073 3068 3063 3062 3060 3059 3058 3057 3056 3059 3058 3059 3062 3062 3067 3067 3060 3056 3059 3061 3049 3071 3063 3067 3089 3097 3100
3094 3093 3092 3090 3086 3081 3079 3077 3077 3074 3073 3074 3082 3072 3073 3071 3070 3068 3065 3064 3063 3061 3062 3062 3060 3056 3057 3057 3059 3060 3060 3064 3063 3057 3056 3069 3067 3078 3078 3078 3085 3089 3088 3090
3090 3091 3092 3088 3089 3078 3077 3077 3072 3075 3075 3067 3073 3070 3062 3063 3065 3062 3062 3061 3065 3063 3061 3061 3061 3060 3059 3060 3059 3060 3063 3064 3066 3059 3058 3066 3074 3073 3078 3079 3080 3079 3078 3079
3088 3087 3087 3086 3085 3082 3077 3075 3073 3074 3073 3068 3068 3064 3061 3063 3062 3062 3056 3060 3066 3065 3062 3060 3059 3058 3058 3059 3058 3059 3060 3061 3063 3064 3065 3063 3064 3070 3071 3070 3071 3071 3071 3074
3085 3087 3086 3082 3080 3080 3074 3074 3077 3069 3065 3065 3064 3066 3066 3065 3063 3061 3060 3061 3062 3060 3060 3060 3060 3058 3058 3059 3060 3060 3060 3060 3062 3061 3061 3060 3059 3060 3060 3059 3059 3062 3067 3068
3085 3085 3085 3087 3081 3078 3074 3069 3071 3067 3068 3064 3062 3062 3058 3058 3059 3059 3059 3061 3060 3057 3058 3059 3060 3061 3062 3062 3061 3060 3060 3062 3063 3062 3061 3062 3060 3058 3055 3056 3056 3054 3054 3058
3080 3081 3082 3081 3080 3076 3072 3070 3068 3064 3063 3060 3059 3057 3056 3056 3058 3058 3059 3058 3056 3056 3056 3057 3058 3061 3062 3061 3061 3062 3062 3062 3060 3059 3057 3057 3058 3054 3055 3054 3048 3044 3045 3051
3080 3078 3077 3076 3074 3072 3069 3067 3065 3062 3059 3058 3057 3057 3056 3056 3056 3056 3056 3056 3055 3055 3055 3054 3055 3058 3059 3059 3058 3058 3059 3058 3056 3055 3054 3054 3051 3050 3049 3047 3046 3050 3054 3055
3076 3075 3074 3071 3071 3069 3066 3062 3059 3059 3059 3056 3056 3055 3054 3053 3053 3054 3054 3053 3053 3053 3054 3053 3054 3057 3057 3056 3055 3055 3056 3055 3054 3055 3052 3052 3053 3053 3053 3051 3051 3052 3052 3050
Wind_Speed
13 16 18 17 21 25 28 32 34 32 28 30 32 32 22 23 20 25 27 29 26 26 21 29 28 28 27 26 21 19 17 14 15 15 11 11 8 8 7 7 7 6 12 13
13 20 20 20 20 22 25 29 33 33 29 29 31 35 33 29 29 28 28 29 30 29 29 27 35 30 32 26 25 22 20 17 12 16 15 14 14 12 11 12 11 11 6 9
17 19 17 18 19 21 25 27 27 28 27 27 29 38 36 34 34 32 35 33 29 30 34 32 41 33 32 26 21 25 22 18 14 17 19 19 18 16 15 15 14 13 10 11
15 12 13 15 19 20 26 22 23 25 26 31 25 29 31 31 32 33 35 35 35 30 29 31 41 35 31 26 24 21 26 21 20 21 21 22 18 15 11 13 15 15 16 14
18 17 16 17 19 18 23 21 21 23 27 29 30 25 28 21 24 25 21 21 25 26 29 32 41 33 31 29 23 20 24 24 23 23 21 22 20 17 17 14 13 12 11 13
17 14 16 16 14 16 16 17 18 21 24 21 28 7 18 24 35 29 33 23 18 27 28 32 41 30 32 30 28 22 25 27 25 26 23 23 20 18 16 15 13 15 12 15
14 15 12 8 16 15 15 16 20 17 17 14 17 13 21 25 20 12 15 25 25 24 27 32 42 30 32 27 29 25 27 29 28 29 27 24 22 21 16 16 12 12 12 17
14 5 6 5 12 15 17 16 15 17 14 20 27 13 19 18 12 12 15 26 19 18 6 26 34 30 25 24 34 24 25 24 26 32 30 26 24 22 16 15 12 10 12 10
13 17 21 13 20 13 20 24 24 20 25 23 17 16 28 10 14 8 25 23 19 12 10 19 10 24 15 12 20 22 23 23 24 33 33 30 26 23 19 18 14 11 11 8
14 23 18 20 18 18 21 20 22 24 14 17 12 18 12 10 11 13 23 27 24 9 17 9 14 12 13 14 17 21 22 27 25 31 36 34 28 24 22 22 16 14 10 8
15 19 21 15 15 18 17 20 16 16 16 9 15 9 10 4 25 22 17 22 29 38 31 37 26 16 17 17 22 27 29 28 28 34 38 39 34 30 27 24 18 16 12 10
13 18 21 22 23 19 15 7 8 6 10 18 23 17 11 14 22 22 18 17 27 12 21 15 9 14 20 23 25 30 35 40 36 35 41 44 39 35 30 26 20 17 14 14
10 12 22 19 17 0 15 18 15 16 13 21 13 27 11 14 18 28 22 11 14 17 17 17 19 24 22 23 15 27 37 43 36 37 43 48 44 39 34 31 24 21 18 16
15 19 20 22 24 30 26 23 20 17 21 22 27 28 11 17 25 26 15 13 13 15 15 13 17 15 12 21 29 31 31 33 38 32 34 41 48 46 41 38 31 26 22 20
14 19 19 23 25 25 27 27 29 28 31 31 33 21 15 21 29 7 12 9 12 12 12 14 12 15 13 16 23 28 33 35 28 28 25 34 41 45 48 45 34 28 24 22
16 21 21 27 25 26 29 30 26 28 29 32 19 11 10 14 21 14 20 15 10 8 8 14 21 15 2 5 17 25 26 26 28 26 35 42 47 45 20 50 33 26 23 21
19 19 20 28 23 25 28 25 24 19 19 21 18 10 15 20 18 16 16 13 8 11 11 11 10 6 34 13 10 12 12 16 23 34 14 33 43 46 37 36 26 21 21 21
25 25 20 26 23 22 25 15 16 18 12 17 15 16 24 16 14 9 8 7 5 8 2 2 6 5 5 14 13 13 12 16 26 35 23 20 30 49 39 13 23 22 24 24
18 15 22 21 26 30 28 16 17 17 10 15 8 12 9 12 10 11 6 4 1 2 5 3 2 5 7 10 16 10 15 19 23 10 18 17 17 22 14 12 15 19 30 28
8 17 16 10 16 22 10 8 9 13 9 8 16 24 21 10 9 8 7 8 6 1 3 4 2 2 5 9 11 13 14 16 16 14 18 21 26 19 16 17 21 24 24 23
8 13 16 11 15 21 15 20 10 17 5 9 9 17 12 6 8 7 12 15 12 2 2 4 5 4 6 5 7 10 11 11 14 18 23 24 25 25 27 29 29 30 31 32
9 8 12 9 7 5 21 22 13 14 10 11 13 10 11 10 10 6 4 3 6 1 2 4 3 3 2 2 2 4 6 7 7 9 13 17 23 28 33 38 39 40 39 36
5 4 9 10 12 17 17 7 11 23 11 17 13 11 11 10 12 7 6 6 8 6 5 7 8 9 1 1 3 6 7 8 9 13 18 18 15 21 26 25 22 27 43 45
7 7 11 11 5 14 15 18 19 17 11 12 10 9 7 7 8 9 13 8 7 6 5 4 5 7 8 7 5 3 2 4 2 5 7 8 10 11 9 6 8 12 6 19
10 12 10 15 12 17 16 19 19 13 9 9 11 9 5 9 9 9 9 9 8 9 9 9 8 6 6 6 6 4 5 6 7 8 8 6 7 6 2 5 5 2 3 6
7 7 12 17 16 19 21 20 17 12 5 5 5 7 8 7 9 11 12 13 14 12 12 9 2 4 8 8 6 5 5 8 8 9 11 9 6 5 2 2 3 4 5 4
Wind_Direction
250 251 254 266 260 267 274 275 277 279 282 286 284 284 279 265 254 247 250 254 246 247 246 245 244 267 269 252 225 219 222 228 240 239 225 222 221 220 227 237 239 210 220 221
260 251 263 268 271 274 277 279 280 280 281 278 277 274 271 265 258 254 256 257 254 250 245 248 231 254 271 272 236 220 223 223 238 240 230 224 229 238 241 245 253 261 243 237
265 272 276 269 274 278 278 278 287 286 288 281 279 274 269 263 258 256 256 255 253 251 246 246 228 241 264 264 235 226 224 222 232 235 229 228 233 239 242 251 258 269 272 261
274 281 275 275 275 282 284 282 282 288 292 289 287 290 278 270 263 254 251 249 246 248 246 243 226 233 256 257 235 223 223 224 228 232 233 236 248 254 250 249 264 268 268 268
272 281 281 280 283 287 289 289 287 286 285 286 285 276 279 294 283 290 276 259 233 247 239 232 229 227 253 250 227 218 220 228 228 234 232 233 242 244 250 256 266 271 272 279
273 275 266 272 282 286 291 290 288 276 268 263 274 281 299 301 277 306 268 250 262 254 239 227 226 224 244 248 222 213 212 224 229 232 232 227 229 235 253 260 271 269 283 296
314 274 257 260 293 288 273 281 275 284 291 294 328 294 299 292 281 272 242 230 286 273 249 233 208 223 243 244 224 215 213 223 229 229 232 222 218 225 243 252 263 279 291 311
312 346 6 299 292 289 289 296 290 291 304 310 311 303 300 320 298 284 183 292 288 304 300 198 210 218 232 230 220 215 210 220 228 229 229 222 212 218 234 245 261 275 284 296
315 294 306 296 300 275 281 270 278 287 285 287 322 302 303 312 285 259 226 267 286 186 224 157 194 210 214 213 227 224 213 220 225 229 226 224 216 218 231 244 249 255 275 295
299 298 297 295 283 272 269 281 287 284 299 289 274 279 271 330 331 297 318 277 259 214 182 184 219 198 219 239 242 253 243 238 230 229 228 224 224 222 225 234 244 248 244 263
306 294 302 296 279 298 304 281 280 307 318 307 312 21 20 25 351 327 316 285 281 258 196 234 208 210 209 227 244 252 257 250 242 229 229 224 222 220 225 231 237 239 231 242
299 299 296 290 286 293 297 320 325 282 289 302 303 294 303 295 337 328 316 322 358 228 309 310 225 242 233 203 234 244 248 250 252 228 228 225 219 219 221 233 235 239 232 231
306 306 310 303 283 39 327 288 305 293 259 285 299 275 249 295 291 313 299 345 323 269 268 257 227 241 254 216 191 231 245 254 251 232 230 225 220 219 221 230 230 230 228 226
302 291 274 275 289 303 303 290 277 278 269 277 262 269 309 327 309 290 300 292 267 262 259 251 235 228 226 206 199 208 221 238 249 249 235 230 224 223 223 227 228 227 221 221
290 285 280 281 283 289 290 287 278 270 259 257 274 279 318 311 335 297 260 300 277 275 260 261 259 233 194 220 219 216 214 219 232 242 240 227 224 229 228 225 224 229 223 220
282 282 285 284 285 285 283 285 281 277 277 276 296 51 334 337 318 335 324 324 299 275 262 294 302 262 69 336 220 235 236 230 229 225 223 216 214 213 241 209 218 222 232 228
275 278 285 284 288 289 283 279 283 290 301 292 309 338 319 310 294 286 274 275 284 297 298 298 316 253 255 313 234 321 348 328 250 237 251 222 222 225 297 153 182 219 242 246
264 261 272 276 282 272 285 290 276 265 263 347 294 295 291 307 291 295 300 288 290 328 46 207 237 281 296 326 282 293 307 295 304 289 312 294 265 266 271 321 210 232 242 260
254 257 269 273 274 279 280 319 314 299 291 291 303 314 286 293 275 251 201 25 261 10 18 68 175 257 266 265 268 276 301 308 313 331 250 289 306 291 264 218 214 238 241 244
245 248 272 299 313 288 307 317 314 309 300 279 313 327 315 309 296 264 192 40 339 68 327 326 337 308 260 264 278 276 264 262 265 279 280 269 277 269 242 248 249 239 247 237
299 301 294 265 245 272 308 296 294 245 269 285 329 339 338 317 342 341 334 242 329 304 190 282 295 291 282 264 266 272 276 274 270 262 261 264 265 253 248 253 256 249 244 239
312 295 304 307 273 289 324 301 277 318 309 287 303 309 337 334 252 328 298 203 271 251 182 197 197 235 113 49 53 41 29 24 353 320 312 301 281 271 267 263 259 253 249 249
285 268 311 301 297 311 296 10 302 284 308 293 285 299 327 339 353 311 292 266 237 237 201 173 169 171 162 114 102 89 58 50 40 40 32 22 335 305 296 292 280 269 256 257
284 301 284 300 306 307 312 283 291 293 268 293 293 290 265 275 264 254 267 255 239 228 237 260 199 208 224 222 221 210 231 272 354 1 354 9 33 41 43 43 51 39 333 246
284 283 273 279 282 312 285 290 287 288 269 270 277 281 285 285 258 262 272 278 252 271 265 275 264 237 238 226 233 264 287 296 310 325 318 331 337 313 320 28 355 325 260 231
277 284 284 289 284 299 287 293 303 270 250 282 314 274 281 267 250 250 257 263 257 263 267 240 222 308 271 262 258 260 284 309 320 316 322 331 335 336 340 254 238 249 255 267